SCP
0 0 0 0 0 0 0 0 0 0 0 0 0 0 0 0 0 0 0 0 0 0 0 0 0 0 0 0 0 0 0 0 0 0 0 0 0 0 0 0 0 0 0 0
0 0 0 0 0 0 0 0 0 0 0 0 0 0 0 0 0 0 0 0 0 0 0 0 0 0 0 0 0 0 0 0 0 0 0 0 0 0 0 0 0 0 0 0
0 0 0 0 0 0 0 0 0 0 0 0 0 -0 -0 0 0 0 0 0 0 0 0 0 0 0 0 0 0 0 0 0 0 0 0 0 0 0 0 0 0 0 0 0
0 0 0 0 0 0 0 0 0 0 0 0 0 -0 -0 0 0 0 0 0 0 0 0 0 0 0 0 0 0 0 0 0 0 0 0 0 0 0 0 0 0 0 0 0
0 0 0 0 0 0 0 0 0 0 0 0 0 0 0 0 0 0 0 0 0 0 0 0 0 0 0 0 0 0 0 0 0 0 0 0 0 0 0 0 0 0 0 0
0 0 0 0 0 0 0 0 0 0 0 0 0 0 0 0 0 0 0 0 0 0 0 0 0 0 0 0 0 0 0 0 0 0 0 0 0 0 0 0 0 0 0 0
0 0 0 0 0 0 0 0 0 0 0 0 0 0 0 0 0 0 0 0 0 0 0 0 0 0 0 0 0 0 0 0 0 0 0 0 0 0 0 0 0 0 0 0
0 0 0 0 0 0 0 0 0 0 0 0 0 0 0 0 0 0 0 0 0 0 0 0 0 0 0 0 0 0 0 0 0 0 0 0 0 0 0 0 0 0 0 0
0 0 0 0 0 0 0 0 0 0 0 0 0 0 0 0 0 0 0 0 0 0 0 0 0 0 0 0 0 0 0 0 0 0 0 0 0 0 0 0 0 0 0 0
0 0 0 0 0 0 0 0 0 0 0 0 0 0 0 0 0 0 0 0 0 0 0 0 0 0 0 0 0 0 0 0 0 0 0 0 0 0 0 0 0 0 0 0
0 0 0 0 0 0 0 0 0 0 0 0 0 0 0 0 0 0 0 0 0 0 0 0 0 0 0 0 0 0 0 0 0 0 0 0 0 0 0 0 0 0 0 0
0 0 0 0 0 0 0 0 0 0 0 0 0 0 0 0 0 0 0 0 0 0 0 0 0 0 0 0 0 0 0 0 0 0 0 0 0 0 0 0 0 0 0 0
0 0 0 0 0 0 0 0 0 0 0 0 0 0 0 0 0 0 0 0 0 0 0 0 0 0 0 0 0 0 0 0 0 0 0 0 0 0 0 0 0 0 0 0
0 0 0 0 0 0 0 0 0 0 0 0 0 0 0 0 0 0 0 0 0 0 0 0 0 0 0 0 0 0 0 0 0 0 0 0 0 0 0 0 0 0 0 0
0 0 0 0 0 0 0 0 0 0 0 0 -0 0 0 0 0 0 0 0 0 0 0 0 0 0 0 0 0 0 0 0 0 0 0 0 0 0 0 0 0 0 0 0
0 0 0 0 0 0 0 0 0 0 0 0 0 0 0 0 0 0 0 0 0 0 0 0 0 0 0 0 0 0 0 0 0 0 0 0 0 0 0 0 0 0 0 0
0 0 0 0 0 0 0 0 0 0 0 0 0 0 0 0 0 0 0 0 0 0 0 0 0 0 0 0 0 0 0 0 0 0 0 0 0 0 0 0 0 0 0 0
0 0 0 0 0 0 0 0 0 0 0 0 0 0 0 0 0 0 0 0 0 0 0 0 0 0 0 0 0 0 0 0 0 0 0 0 0 0 0 0 0 0 0 0
0 0 0 0 0 0 0 0 0 0 0 0 0 0 0 0 0 0 0 0 0 0 0 0 0 0 0 0 0 0 0 0 0 0 0 0 0 0 0 0 0 0 0 0
0 0 0 0 0 0 0 0 0 0 0 0 0 0 0 0 0 0 0 0 0 0 0 0 0 0 0 0 0 0 0 0 0 0 0 0 0 0 0 0 0 0 0 0
0 0 0 0 0 0 0 0 0 0 0 0 0 0 0 0 0 0 0 0 0 0 0 0 0 0 0 0 0 0 0 0 0 0 0 0 0 0 0 0 0 0 0 0
0 0 0 0 0 0 0 0 0 0 0 0 0 0 0 0 0 0 0 0 0 0 0 0 0 0 0 0 0 0 0 0 0 0 0 0 0 0 0 0 0 0 0 0
0 0 0 0 0 0 0 0 0 0 0 0 0 0 0 0 0 0 0 0 0 0 0 0 0 0 0 0 0 0 0 0 0 0 0 0 0 0 0 0 0 0 0 0
0 0 0 0 0 0 0 0 0 0 0 0 0 0 0 0 0 0 0 0 0 0 0 0 0 0 0 0 0 0 0 0 0 0 0 0 0 0 0 0 0 0 0 0
0 0 0 0 0 0 0 0 0 0 0 0 0 0 0 0 0 0 0 0 0 0 0 0 0 0 0 0 0 0 0 0 0 0 0 0 0 0 0 0 0 0 0 0
0 0 0 0 0 0 0 0 0 0 0 0 0 0 0 0 0 0 0 0 0 0 0 0 0 0 0 0 0 0 0 0 0 0 0 0 0 0 0 0 0 0 0 0
Wind_Speed
2 2 2 5 5 4 3 3 4 5 4 2 5 8 9 5 2 3 3 3 4 6 4 2 3 4 5 5 6 7 7 7 7 6 6 5 5 4 3 3 4 5 5 5
2 2 4 3 3 2 3 4 4 4 2 2 4 8 7 4 3 3 3 4 4 4 3 2 1 3 4 5 6 7 7 7 7 5 5 4 4 3 3 3 4 5 5 6
2 3 2 2 1 1 3 6 5 4 4 2 1 5 5 4 2 2 2 3 3 3 4 3 2 3 4 5 6 7 7 7 7 6 5 4 4 3 2 3 3 4 5 5
1 3 2 1 2 2 5 4 4 4 1 3 1 4 6 4 4 5 4 4 4 4 3 3 3 3 4 5 5 6 7 7 7 7 7 9 6 5 5 4 4 4 4 5
2 1 1 2 4 3 5 3 3 3 2 2 1 3 6 3 4 6 5 5 5 4 3 3 3 4 4 3 4 4 5 6 6 7 8 8 6 4 3 4 5 4 3 4
3 2 1 3 3 3 2 1 1 1 1 4 4 4 6 3 4 5 5 5 5 4 3 3 2 1 1 1 2 3 5 5 5 7 8 8 8 7 7 6 5 4 3 3
4 3 2 1 2 2 1 2 1 1 1 5 2 3 7 4 3 3 5 6 5 3 2 2 2 1 1 2 3 3 4 4 5 6 6 7 8 8 9 8 6 5 4 3
3 4 3 2 1 2 2 3 3 3 4 3 1 5 6 2 3 4 4 4 5 4 3 2 2 2 2 2 3 3 4 4 4 5 5 5 6 5 5 6 6 6 4 4
1 5 4 3 2 2 1 2 2 1 1 2 4 4 6 3 5 6 6 6 6 5 4 3 2 1 1 2 3 4 4 4 4 4 5 5 6 5 5 5 4 4 3 3
1 4 5 4 2 2 2 3 2 2 2 3 4 3 4 5 6 8 8 7 7 6 5 5 3 3 1 0 1 2 2 3 3 3 4 4 4 5 5 5 5 5 4 4
0 1 5 3 0 2 1 1 1 1 2 3 3 5 2 3 4 5 6 6 6 6 5 4 4 3 2 2 1 2 2 2 2 3 3 3 4 4 4 5 5 5 4 5
0 1 3 5 4 2 2 2 3 3 3 2 2 6 2 1 3 3 5 6 7 6 5 5 4 5 4 3 2 1 2 2 2 3 3 3 3 4 4 4 4 4 5 4
1 1 3 5 3 3 2 1 1 2 1 2 3 6 2 4 5 5 6 7 7 7 6 6 6 6 5 4 3 2 2 2 2 3 4 4 3 4 4 4 4 4 4 4
1 1 3 6 5 2 4 4 2 2 2 3 5 7 7 7 7 8 7 7 6 6 6 6 6 5 5 5 3 2 2 2 3 4 4 4 3 3 4 4 4 4 4 4
2 1 3 5 6 4 4 7 4 4 5 6 6 6 7 7 6 6 6 6 6 6 7 6 6 5 5 5 4 3 2 2 3 4 4 4 4 4 4 4 4 4 4 4
2 1 2 4 4 4 5 7 6 6 5 6 6 8 6 4 4 4 5 5 6 7 7 6 6 5 5 4 4 3 2 2 3 4 4 4 4 4 4 4 4 4 4 4
1 1 1 4 4 4 6 5 5 4 3 5 7 6 3 4 6 5 5 5 5 6 7 6 5 5 5 4 2 2 2 2 3 4 4 4 4 4 3 3 4 4 4 4
3 2 1 2 3 4 6 1 2 3 4 4 3 2 2 3 5 4 3 4 5 6 7 6 5 5 4 3 2 2 2 2 3 3 3 3 4 4 3 4 4 3 3 3
3 4 2 1 2 7 6 2 0 1 5 2 2 3 3 4 4 4 3 4 5 6 6 5 5 4 3 3 2 2 2 2 3 2 3 3 3 4 4 3 3 3 3 3
2 2 2 2 2 6 5 2 2 0 5 2 1 3 4 3 3 5 5 6 6 6 5 5 5 4 3 3 1 2 2 2 1 1 2 2 3 4 4 3 2 2 3 2
1 1 2 3 4 8 5 3 1 2 5 3 2 3 3 3 4 5 6 6 5 5 5 5 5 4 3 2 1 2 2 1 1 1 2 2 2 3 3 3 3 3 3 3
4 3 3 3 4 8 2 1 3 5 4 3 3 3 3 4 4 4 4 5 6 5 5 5 4 4 4 3 2 2 2 1 2 2 2 2 2 2 3 3 3 3 3 3
6 7 5 7 8 4 2 3 3 2 3 3 3 4 3 3 4 4 4 4 4 4 5 4 4 4 4 3 2 2 2 2 2 2 2 2 2 2 3 3 3 2 2 2
4 2 3 5 7 6 5 4 4 3 3 4 4 3 2 3 4 4 4 3 3 4 4 4 4 4 4 4 3 1 1 2 2 2 2 2 2 3 2 2 2 2 2 2
5 4 4 6 7 5 5 5 5 4 4 3 3 3 2 3 4 4 3 3 3 3 3 3 3 3 3 3 3 3 2 2 2 2 2 2 2 2 2 1 1 1 1 2
6 7 7 8 6 5 6 5 4 4 4 3 3 3 3 2 3 3 2 2 2 3 3 3 3 3 4 3 3 3 2 2 2 1 1 1 1 1 1 1 1 2 1 1
Wind_Direction
34 89 210 229 211 215 206 212 247 257 269 259 249 265 276 284 289 287 288 271 263 256 264 252 218 200 186 180 180 179 174 169 163 164 165 163 168 165 162 168 161 161 158 157
56 262 258 254 228 225 216 235 258 282 285 266 263 271 272 270 255 253 265 275 272 285 306 294 232 194 186 187 188 183 183 176 175 176 170 161 153 155 157 157 159 166 166 164
172 268 273 241 235 286 253 214 231 256 315 317 302 291 278 283 269 316 305 290 285 269 270 272 244 210 194 195 196 192 186 180 177 165 147 132 121 117 141 162 169 178 172 167
294 285 239 233 235 215 265 235 235 252 264 279 187 267 279 295 317 325 315 316 307 294 278 265 244 223 210 209 200 192 184 180 177 166 165 165 170 173 180 176 171 168 168 165
288 328 179 229 250 224 242 275 252 237 206 275 253 225 282 326 312 310 308 309 307 298 279 261 248 224 217 209 194 188 179 179 177 176 174 172 171 169 152 147 154 164 170 170
275 279 234 254 268 233 249 344 29 32 122 252 229 204 276 278 270 300 310 309 299 299 296 283 284 256 214 202 188 177 173 176 176 179 177 176 172 166 159 162 171 172 168 168
338 327 322 324 346 341 77 99 36 352 263 251 219 205 249 265 295 288 302 308 300 298 296 303 319 303 225 205 194 181 175 179 178 175 179 181 177 174 175 173 177 175 172 175
1 316 320 342 227 249 228 175 174 201 222 276 286 233 252 275 325 339 338 330 330 326 321 307 290 269 228 211 198 185 184 179 176 175 177 171 168 172 176 177 175 179 180 178
338 284 308 311 303 171 163 211 199 175 266 254 262 283 297 331 355 1 357 357 349 341 336 336 336 325 283 227 205 189 185 171 171 173 166 166 167 165 167 166 167 167 165 161
216 287 304 312 356 360 173 159 131 154 186 249 277 261 266 321 337 343 349 346 341 348 349 355 354 347 341 279 179 156 161 166 164 157 160 166 168 163 161 158 163 163 163 157
228 253 308 346 318 267 35 94 129 153 192 181 245 267 245 293 316 329 336 338 338 342 341 342 347 350 1 30 83 119 128 124 134 142 139 141 150 152 153 158 161 159 153 156
318 123 283 268 261 247 191 185 169 188 243 216 219 269 309 315 329 344 339 342 342 343 344 348 358 9 17 23 42 81 112 118 125 128 123 126 131 137 144 149 151 149 147 147
7 77 334 333 336 13 16 319 203 172 161 201 210 264 326 359 351 350 344 342 344 346 353 1 8 10 9 10 24 57 97 108 110 114 114 114 121 130 134 135 137 137 136 137
32 123 202 224 249 286 301 303 267 175 198 232 236 262 300 327 333 336 341 340 343 347 353 0 3 3 3 6 15 31 73 97 104 106 108 110 113 117 121 122 121 123 126 131
67 216 248 262 271 264 271 284 280 229 219 219 243 255 280 306 312 317 330 338 348 352 352 351 351 352 1 8 12 20 44 85 102 107 108 109 105 104 109 112 116 119 119 121
48 233 288 288 276 273 281 281 267 255 239 229 248 270 280 304 315 323 337 344 346 341 338 338 343 348 352 357 0 14 22 62 99 102 102 104 104 103 103 106 113 116 113 111
245 186 302 285 306 327 285 266 243 235 232 211 231 246 306 334 334 325 330 335 328 326 328 330 333 335 335 341 351 10 15 60 90 98 96 99 106 107 104 105 105 108 111 111
189 171 185 293 5 259 252 271 242 247 270 247 251 277 307 303 308 313 327 326 325 328 328 329 330 330 333 345 359 29 52 77 92 101 104 105 112 113 108 106 104 101 102 106
191 166 155 153 267 279 291 304 302 257 287 262 252 294 317 328 329 324 341 339 326 323 321 321 320 322 334 345 2 50 57 72 82 97 110 116 119 117 111 109 110 109 106 100
66 111 135 152 217 254 267 300 302 161 285 297 298 297 313 338 317 299 333 335 330 331 330 332 333 337 342 344 22 78 74 76 79 91 107 122 127 126 124 123 118 112 114 115
36 56 173 201 235 265 269 296 14 190 263 305 295 297 296 273 263 289 316 324 332 334 335 340 344 347 345 352 43 76 80 69 59 84 94 103 118 125 125 118 115 117 112 107
189 182 202 180 218 258 270 116 194 240 289 304 301 291 274 275 293 305 315 324 335 340 344 349 351 349 349 5 43 60 46 39 62 75 86 90 100 113 113 115 114 115 119 116
205 196 195 201 223 253 234 225 257 274 283 286 283 287 273 280 291 305 316 324 332 340 346 352 355 353 354 10 44 60 21 50 70 74 78 84 87 96 108 118 119 112 117 128
250 205 209 254 263 268 268 268 283 274 271 280 283 284 272 273 290 303 311 319 332 342 345 350 356 360 356 10 31 41 39 63 80 81 80 86 92 89 89 99 117 132 150 158
226 192 214 254 274 295 276 256 263 271 276 285 292 280 265 272 287 291 299 309 325 337 344 351 349 351 351 4 17 19 32 70 84 83 85 82 81 91 87 82 109 173 207 204
200 192 198 232 231 228 264 273 263 263 271 272 279 293 295 272 279 289 299 313 326 333 344 349 357 360 359 10 14 9 22 75 103 97 85 83 84 82 86 82 45 35 25 359